Westfield, MA

4:10 AM EST on November 23, 2017 (GMT -0500)
Barnes Municipal

Weather History for KBAF - December, 2011

Change the Weather History Date:

Friday, December 2, 2011

  Actual Average Record
Temperature  
Mean Temperature 36 °F -  
Max Temperature 50 °F 41 °F 62 °F (1998)
Min Temperature 23 °F 24 °F 10 °F (2000)
Degree Days  
Heating Degree Days 28    
Moisture  
Dew Point 25 °F    
Average Humidity 66    
Maximum Humidity 88    
Minimum Humidity 36    
Precipitation  
Precipitation 0.00 in - - ()
Sea Level Pressure  
Sea Level Pressure 30.35 in    
Wind  
Wind Speed 3 mph (WNW)    
Max Wind Speed 15 mph    
Max Gust Speed 23 mph    
Visibility 10 miles    
Events      
Averages and records for this station are not official NWS values.
T = Trace of Precipitation, MM = Missing Value Source: NWS Daily Summary

Daily Weather History Graph

Daily Weather History Graph

Search for Another Location

Airport or City:

Trip Planner

Search our weather history database for the weather conditions in past years. The results will help you decide how hot, cold, wet, or windy it might be!

Date:

Astronomy

Dec. 02, 2011 Rise Set
Actual Time 7:00 AM EST 4:19 PM EST
Civil Twilight 6:29 AM EST 4:50 PM EST
Nautical Twilight 5:54 AM EST 5:25 PM EST
Astronomical Twilight 5:20 AM EST 5:59 PM EST
Moon 12:04 PM EST (12/2) No Moon Set
Length of Visible Light 10h 21m
Length of Day
9h 19m
First Quarter, 53% of the Moon is Illuminated
Dec 2
First Quarter
Dec 10
Full
Dec 17
Last Quarter
Dec 24
New
Jan 1
First Quarter

Hourly Weather History & Observations

Time (EST) Temp. Windchill Dew Point Humidity Pressure Visibility Wind Dir Wind Speed Gust Speed Precip Events Conditions
12:53 AM 27.0 °F - 21.9 °F 81% 30.31 in 10.0 mi Calm Calm - N/A   Clear
1:53 AM 26.1 °F - 21.9 °F 84% 30.33 in 10.0 mi Calm Calm - N/A   Clear
2:53 AM 26.1 °F - 21.9 °F 84% 30.32 in 10.0 mi Calm Calm - N/A   Clear
3:53 AM 25.0 °F - 21.0 °F 85% 30.32 in 10.0 mi Calm Calm - N/A   Clear
4:53 AM 25.0 °F - 21.0 °F 85% 30.32 in 10.0 mi Calm Calm - N/A   Clear
5:53 AM 24.1 °F - 21.0 °F 88% 30.33 in 10.0 mi Calm Calm - N/A   Clear
6:53 AM 23.0 °F 18.4 °F 19.9 °F 88% 30.34 in 10.0 mi NW 3.5 mph - N/A   Clear
7:53 AM 26.1 °F - 23.0 °F 88% 30.34 in 10.0 mi Calm Calm - N/A   Clear
8:53 AM 30.9 °F - 26.1 °F 82% 30.35 in 10.0 mi Calm Calm - N/A   Clear
9:53 AM 34.0 °F - 26.1 °F 73% 30.34 in 10.0 mi Calm Calm - N/A   Clear
10:53 AM 37.9 °F 35.5 °F 27.0 °F 65% 30.33 in 10.0 mi SSW 3.5 mph - N/A   Clear
11:53 AM 45.0 °F 40.1 °F 28.0 °F 52% 30.30 in 10.0 mi South 9.2 mph - N/A   Clear
12:53 PM 46.9 °F - 28.9 °F 50% 30.27 in 10.0 mi SSE 9.2 mph - N/A   Mostly Cloudy
1:53 PM 50.0 °F - 28.0 °F 43% 30.25 in 10.0 mi SSW 10.4 mph - N/A   Clear
2:53 PM 50.0 °F - 24.1 °F 36% 30.25 in 10.0 mi WSW 10.4 mph - N/A   Clear
3:53 PM 48.0 °F - 23.0 °F 37% 30.28 in 10.0 mi West 6.9 mph - N/A   Mostly Cloudy
4:53 PM 46.9 °F - 25.0 °F 42% 30.30 in 10.0 mi WSW 3.5 mph - N/A   Mostly Cloudy
5:53 PM 41.0 °F 37.1 °F 27.0 °F 57% 30.34 in 10.0 mi North 5.8 mph - N/A   Overcast
6:53 PM 45.0 °F 39.7 °F 25.0 °F 46% 30.38 in 10.0 mi NNW 10.4 mph 19.6 mph N/A   Overcast
7:53 PM 42.1 °F 36.1 °F 28.9 °F 60% 30.42 in 10.0 mi NW 10.4 mph 21.9 mph N/A   Clear
8:53 PM 39.9 °F 35.1 °F 28.9 °F 65% 30.45 in 10.0 mi NNW 6.9 mph - N/A   Clear
9:53 PM 39.9 °F 31.8 °F 28.0 °F 63% 30.46 in 10.0 mi NNW 15.0 mph 23.0 mph N/A   Clear
10:53 PM 37.0 °F 31.0 °F 28.0 °F 70% 30.48 in 10.0 mi NW 8.1 mph - N/A   Clear
11:53 PM 37.0 °F 32.4 °F 28.0 °F 70% 30.50 in 10.0 mi North 5.8 mph - N/A   Clear